Tracking 30701 objects as of 14-Jun-2025
HD Live streaming from Space Station
objects crossing your sky now

STARLINK-4699

Track STARLINK-4699 now!
10-day predictions
STARLINK-4699 is classified as:


NORAD ID: 53716
Int'l Code: 2022-107S
Perigee: 545.9 km
Apogee: 547.9 km
Inclination: 53.2 °
Period: 95.4 minutes
Semi major axis: 6917 km
RCS: Unknown
Launch date: September 5, 2022
Source: United States (US)
Launch site: AIR FORCE EASTERN TEST RANGE (AFETR)
Your satellite tracking list
Your tracking list is empty




NASA's NSSDC Master Catalog

Two Line Element Set (TLE):
1 53716U 22107S   25164.92393492  .00000415  00000-0  44179-4 0  9992
2 53716  53.2175  20.3353 0001475  90.2868 269.8293 15.08842382153833
Source of the keplerian elements: AFSPC